Weather History for Algona, IA

Change the Weather History Date:

Saturday, November 23, 2013

  Actual Average Record
Temperature  
Mean Temperature 11 °F -  
Max Temperature 17 °F 39 °F 60 °F (2006)
Min Temperature 5 °F 24 °F 5 °F (2013)
Degree Days  
Heating Degree Days 54    
Moisture  
Dew Point -    
Average Humidity    
Maximum Humidity    
Minimum Humidity    
Precipitation  
Precipitation 0.00 in - - ()
Sea Level Pressure  
Sea Level Pressure 30.73 in    
Wind  
Wind Speed 13 mph (NNW)    
Max Wind Speed 22 mph    
Max Gust Speed 29 mph    
Visibility 10 miles    
Events      
Averages and records for this station are not official NWS values.
T = Trace of Precipitation, MM = Missing Value Source: NWS Daily Summary

Daily Weather History Graph

Daily Weather History Graph

Search for Another Location

Airport:

Trip Planner

Search our weather history database for the weather conditions in past years. The results will help you decide how hot, cold, wet, or windy it might be!

Date:

Astronomy

Nov. 23, 2013 Rise Set
Actual Time 7:19 AM CST 4:46 PM CST
Civil Twilight 6:48 AM CST 5:18 PM CST
Nautical Twilight 6:13 AM CST 5:53 PM CST
Astronomical Twilight 5:39 AM CST 6:26 PM CST
Moon 10:19 PM CST (11/23) 11:34 AM CST (11/23)
Length of Visible Light 10h 29m
Length of Day
9h 26m
Waning Gibbous, 69% of the Moon is Illuminated
Nov 23
Waning Gibbous
Nov 25
Last Quarter
Dec 2
New
Dec 9
First Quarter
Dec 17
Full

Hourly Weather History & Observations

Time (CST) Temp. Windchill Dew Point Humidity Pressure Visibility Wind Dir Wind Speed Gust Speed Precip Events Conditions
12:15 AM 15.8 °F -0.6 °F - N/A% 30.60 in 10.0 mi NNW 18.4 mph 26.5 mph N/A   Clear
12:35 AM 14.0 °F -2.0 °F - N/A% 30.61 in 10.0 mi NNW 16.1 mph 23.0 mph N/A   Partly Cloudy
12:55 AM 14.0 °F -4.3 °F - N/A% 30.60 in 10.0 mi North 21.9 mph 28.8 mph N/A   Mostly Cloudy
1:15 AM 14.0 °F -2.5 °F - N/A% 30.61 in 10.0 mi North 17.3 mph 25.3 mph N/A   Scattered Clouds
1:35 AM 12.2 °F -5.3 °F - N/A% 30.62 in 10.0 mi North 18.4 mph 25.3 mph N/A   Clear
1:55 AM 12.2 °F -4.3 °F - N/A% 30.63 in 10.0 mi North 16.1 mph 23.0 mph N/A   Clear
2:15 AM 10.4 °F -6.6 °F - N/A% 30.63 in 10.0 mi NNW 16.1 mph 24.2 mph N/A   Clear
2:35 AM 10.4 °F -5.4 °F - N/A% 30.65 in 10.0 mi NNW 13.8 mph 21.9 mph N/A   Clear
2:55 AM 10.4 °F -6.0 °F - N/A% 30.66 in 10.0 mi NNW 15.0 mph - N/A   Clear
3:15 AM 8.6 °F -7.0 °F - N/A% 30.66 in 10.0 mi NNW 12.7 mph - N/A   Clear
3:35 AM 8.6 °F -7.7 °F - N/A% 30.68 in 10.0 mi NNW 13.8 mph - N/A   Clear
3:55 AM 8.6 °F -8.3 °F - N/A% 30.68 in 10.0 mi NNW 15.0 mph - N/A   Clear
4:15 AM 8.6 °F -8.3 °F - N/A% 30.69 in 10.0 mi NNW 15.0 mph - N/A   Clear
4:35 AM 6.8 °F -11.3 °F - N/A% 30.69 in 10.0 mi NNW 16.1 mph 21.9 mph N/A   Clear
4:55 AM 6.8 °F -10.0 °F - N/A% 30.70 in 10.0 mi NNW 13.8 mph 20.7 mph N/A   Clear
5:15 AM 6.8 °F -10.0 °F - N/A% 30.71 in 10.0 mi NNW 13.8 mph - N/A   Clear
5:35 AM 6.8 °F -10.0 °F - N/A% 30.72 in 10.0 mi NNW 13.8 mph - N/A   Clear
5:55 AM 6.8 °F -10.7 °F - N/A% 30.73 in 10.0 mi NNW 15.0 mph - N/A   Clear
6:15 AM 6.8 °F -10.7 °F - N/A% 30.74 in 10.0 mi NNW 15.0 mph - N/A   Clear
6:35 AM 6.8 °F -8.6 °F - N/A% 30.74 in 10.0 mi NNW 11.5 mph 17.3 mph N/A   Clear
6:55 AM 5.0 °F -11.6 °F - N/A% 30.76 in 10.0 mi NNW 12.7 mph - N/A   Clear
7:15 AM 5.0 °F -10.8 °F - N/A% 30.76 in 10.0 mi North 11.5 mph - N/A   Clear
7:35 AM 5.0 °F -12.3 °F - N/A% 30.77 in 10.0 mi NNW 13.8 mph - N/A   Clear
7:55 AM 6.8 °F -10.0 °F - N/A% 30.77 in 10.0 mi NNW 13.8 mph 19.6 mph N/A   Clear
8:15 AM 6.8 °F -10.0 °F - N/A% 30.78 in 10.0 mi NNW 13.8 mph - N/A   Clear
8:35 AM 6.8 °F -11.3 °F - N/A% 30.79 in 10.0 mi North 16.1 mph 25.3 mph N/A   Clear
8:55 AM 6.8 °F -11.8 °F - N/A% 30.80 in 10.0 mi North 17.3 mph 24.2 mph N/A   Clear
9:15 AM 8.6 °F -7.7 °F - N/A% 30.80 in 10.0 mi North 13.8 mph 23.0 mph N/A   Partly Cloudy
9:35 AM 8.6 °F -8.9 °F - N/A% 30.81 in 10.0 mi North 16.1 mph - N/A   Partly Cloudy
9:55 AM 8.6 °F -7.0 °F - N/A% 30.81 in 10.0 mi North 12.7 mph 23.0 mph N/A   Scattered Clouds
10:15 AM 10.4 °F -4.8 °F - N/A% 30.81 in 10.0 mi North 12.7 mph 18.4 mph N/A   Mostly Cloudy
10:35 AM 10.4 °F -4.8 °F - N/A% 30.81 in 10.0 mi North 12.7 mph 20.7 mph N/A   Scattered Clouds
10:55 AM 12.2 °F -1.0 °F - N/A% 30.80 in 10.0 mi North 10.4 mph 17.3 mph N/A   Mostly Cloudy
11:15 AM 12.2 °F -1.8 °F - N/A% 30.80 in 9.0 mi North 11.5 mph - N/A   Scattered Clouds
11:35 AM 14.0 °F -0.8 °F - N/A% 30.79 in 10.0 mi North 13.8 mph - N/A   Partly Cloudy
11:55 AM 14.0 °F 0.5 °F - N/A% 30.80 in 10.0 mi North 11.5 mph - N/A   Clear
12:15 PM 14.0 °F -0.2 °F - N/A% 30.79 in 10.0 mi North 12.7 mph 19.6 mph N/A   Clear
12:35 PM 15.8 °F 2.7 °F - N/A% 30.78 in 10.0 mi North 11.5 mph 18.4 mph N/A   Clear
12:55 PM 15.8 °F 1.4 °F - N/A% 30.78 in 10.0 mi North 13.8 mph 20.7 mph N/A   Clear
1:15 PM 15.8 °F 2.1 °F - N/A% 30.78 in 10.0 mi North 12.7 mph - N/A   Clear
1:35 PM 15.8 °F 0.9 °F - N/A% 30.77 in 10.0 mi North 15.0 mph - N/A   Clear
1:55 PM 15.8 °F 2.7 °F - N/A% 30.78 in 10.0 mi NNW 11.5 mph - N/A   Clear
2:15 PM 17.6 °F 4.3 °F - N/A% 30.77 in 10.0 mi North 12.7 mph - N/A   Clear
2:35 PM 17.6 °F 4.3 °F - N/A% 30.77 in 10.0 mi North 12.7 mph - N/A   Clear
2:55 PM 17.6 °F 6.4 °F - N/A% 30.77 in 10.0 mi NNW 9.2 mph - N/A   Clear
3:15 PM 17.6 °F 5.0 °F - N/A% 30.78 in 10.0 mi NNW 11.5 mph - N/A   Clear
3:35 PM 17.6 °F 5.7 °F - N/A% 30.78 in 10.0 mi NNW 10.4 mph 16.1 mph N/A   Clear
3:55 PM 15.8 °F 2.7 °F - N/A% 30.77 in 10.0 mi NNW 11.5 mph - N/A   Clear
4:15 PM 15.8 °F 5.1 °F - N/A% 30.77 in 10.0 mi NNW 8.1 mph - N/A   Clear
4:35 PM 15.8 °F 4.2 °F - N/A% 30.77 in 10.0 mi NNW 9.2 mph - N/A   Clear
4:55 PM 14.0 °F 3.9 °F - N/A% 30.76 in 10.0 mi NNW 6.9 mph - N/A   Clear
5:15 PM 14.0 °F 6.5 °F - N/A% 30.75 in 10.0 mi North 4.6 mph - N/A   Clear
5:35 PM 12.2 °F 6.1 °F - N/A% 30.75 in 10.0 mi NNW 3.5 mph - N/A   Clear
5:55 PM 14.0 °F 6.5 °F - N/A% 30.75 in 10.0 mi NW 4.6 mph - N/A   Clear
6:15 PM 12.2 °F 4.3 °F - N/A% 30.74 in 10.0 mi NNW 4.6 mph - N/A   Clear
6:35 PM 12.2 °F 4.3 °F - N/A% 30.75 in 10.0 mi NNW 4.6 mph - N/A   Clear
6:55 PM 8.6 °F - - N/A% 30.74 in 10.0 mi Calm Calm - N/A   Clear
7:15 PM 8.6 °F 2.0 °F - N/A% 30.74 in 10.0 mi NW 3.5 mph - N/A   Clear
7:35 PM 8.6 °F - - N/A% 30.74 in 10.0 mi Calm Calm - N/A   Clear
7:55 PM 6.8 °F -0.1 °F - N/A% 30.73 in 10.0 mi WNW 3.5 mph - N/A   Clear
8:15 PM 6.8 °F - - N/A% 30.73 in 10.0 mi Calm Calm - N/A   Clear
8:35 PM 8.6 °F - - N/A% 30.72 in 10.0 mi Calm Calm - N/A   Clear
8:55 PM 10.4 °F - - N/A% 30.72 in 10.0 mi Calm Calm - N/A   Clear
9:15 PM 6.8 °F -2.0 °F - N/A% 30.72 in 10.0 mi West 4.6 mph - N/A   Clear
9:35 PM 6.8 °F -0.1 °F - N/A% 30.72 in 10.0 mi WNW 3.5 mph - N/A   Clear
9:55 PM 6.8 °F - - N/A% 30.72 in 10.0 mi Calm Calm - N/A   Clear
10:15 PM 5.0 °F - - N/A% 30.71 in 10.0 mi Calm Calm - N/A   Clear
10:35 PM 5.0 °F - - N/A% 30.71 in 10.0 mi Calm Calm - N/A   Clear
10:55 PM 6.8 °F - - N/A% 30.70 in 10.0 mi Calm Calm - N/A   Clear
11:15 PM 5.0 °F -2.1 °F - N/A% 30.70 in 10.0 mi South 3.5 mph - N/A   Clear
11:35 PM 5.0 °F -4.1 °F - N/A% 30.70 in 10.0 mi SW 4.6 mph - N/A   Clear
11:55 PM 6.8 °F -2.0 °F - N/A% 30.70 in 10.0 mi SW 4.6 mph - N/A   Clear